ビショア彗星

297P/Beshore (2014)

English version
Home page
Updated on March 25, 2017

---------------------------------------------------------------------

・ プロフィール

符号 297P/2014 D1
検出日 2014年2月27日
検出光度 19.9等
検出者 D. T. Durig (University of the South, Sewanee, TN, USA)

・ 写真集

・ 軌道要素

Epoch 2014 Aug. 11.0 TT = JDT 2456880.5
T 2014 Aug. 29.96300 TT                                 MPCW
q   2.3462370            (2000.0)            P               Q
n   0.15421418     Peri.  132.19668     -0.63216233     +0.75420360
a   3.4439210      Node    97.70875     -0.75320053     -0.54435593
e   0.3187309      Incl.   10.32530     -0.18182340     -0.36722412
P   6.39
From 498 observations 2001 Mar. 20-2014 June 18, mean residual 0".5.

・ 星図

・ 光度変化

        m1 = 12.5 + 5 logΔ + 15 log r

        ※ 灰色の曲線は、m1 = -5 + 5 logΔ + 50 log r の光度曲線です。

---------------------------------------------------------------------

軌道要素はM.P.E.C. 2017-A77に掲載されたものです。
星図はステラナビゲータ Ver.8 (アストロアーツ) で作成したものです。
光度グラフはComet for Windowsで作成したものです。

---------------------------------------------------------------------

Copyright(C) Seiichi Yoshida (comet@aerith.net). All rights reserved.